Home   Weather   Salzgitter   Past weeks

Flag for Germany Past Weather in Salzgitter, Lower Saxony, Germany — Yesterday and Last 2 Weeks

Now
66 °F

Passing clouds.


Feels Like: 66 °F
Forecast: 57 / 72 °F
Wind: 6 mph from East

Location: Celle Airport

Current Time: Jul 22, 2017 at 11:01:03 pm

Latest Report: Jul 22, 2017 at 10:20 pm


Visibility: N/A

Pressure: 29.89 "Hg

Humidity: 88%

Dew Point: 63 °F

Location of SalzgitterLocation

Past Weather in Salzgitter — Graph

°F

Salzgitter Temperature Yesterday

Maximum temperature yesterday: 73 °F (at 4:20 pm)
Minimum temperature yesterday: 59 °F (at 6:20 am)
Average temperature yesterday: 67 °F

High & Low Weather Summary for the Past Weeks

 TemperatureHumidityPressure
High84 °F (Jul 19, 4:20 pm)100% (Jul 10, 10:20 pm)30.21 "Hg (Jul 10, 10:20 pm)
Low48 °F (Jul 18, 5:20 am)40% (Jul 14, 3:20 pm)29.71 "Hg (Jul 12, 11:43 am)
Average63 °F77%29.97 "Hg
* Reported Jul 7 9:20 pm — Jul 22 9:20 pm, Salzgitter. Weather by CustomWeather, © 2017

Note: Actual official high and low records may vary slightly from our data, if they occured in-between our weather recording intervals... More about our weather records

Advertising

Salzgitter Weather History for the Previous 24 Hours

Scroll right to see more
 ConditionsComfort  
Time TempWeatherWind HumidityBarometerVisibility
9:20 pm
Sat, Jul 22
68 °FBroken clouds.8 mph83%29.89 "HgN/A
8:20 pm70 °FBroken clouds.6 mph78%29.89 "HgN/A
7:20 pm72 °FBroken clouds.6 mph73%29.89 "HgN/A
6:20 pm72 °FBroken clouds.5 mph73%29.89 "HgN/A
5:20 pm72 °FMild.3 mph69%29.92 "Hg5 mi
4:20 pm72 °FMild.2 mph73%29.92 "Hg4 mi
3:20 pm68 °FMild.6 mph83%29.92 "Hg6 mi
2:20 pm68 °FMild.7 mph83%29.92 "Hg5 mi
1:20 pm64 °FMild.3 mph94%29.92 "Hg5 mi
12:20 pm64 °FMild.7 mph88%29.92 "Hg4 mi
11:20 am63 °FMild.7 mph94%29.92 "Hg4 mi
10:20 am63 °FMild.2 mph94%29.95 "Hg4 mi
9:20 am63 °FMild.5 mph94%29.92 "Hg5 mi
8:20 am63 °FMild.No wind88%29.92 "Hg6 mi
7:20 am63 °FMild.6 mph88%29.92 "Hg6 mi
6:20 am63 °FMild.8 mph83%29.89 "Hg6 mi
5:20 am61 °FPassing clouds.7 mph83%29.89 "HgN/A
4:20 am61 °FPassing clouds.6 mph83%29.89 "HgN/A
3:20 am63 °FPassing clouds.6 mph73%29.89 "HgN/A
2:20 am63 °FPassing clouds.6 mph73%29.92 "HgN/A
1:20 am64 °FPassing clouds.6 mph68%29.92 "HgN/A
12:20 am64 °FPassing clouds.6 mph68%29.92 "HgN/A
11:20 pm
Fri, Jul 21
66 °FPassing clouds.8 mph64%29.92 "HgN/A
Weather by CustomWeather, © 2017

See weather overviewHow to use our weather pages